Total_Precipitation_Accumulation
0.43 0.39 0.35 0.35 0.34 0.34 0.36 0.42 0.60 0.77 0.91 1.02 1.15 1.40 1.56 1.65 1.64 1.64 1.70 1.62 1.44 1.52 1.64 1.61 1.82 1.89 1.88 1.88 1.82 1.94 1.97 1.71 1.53 1.83 1.82 1.43 1.14 1.03 1.06 1.11 1.15 1.19 1.20
0.35 0.33 0.27 0.26 0.25 0.24 0.29 0.35 0.50 0.75 0.98 1.18 1.35 1.53 1.85 2.01 2.01 2.07 2.01 1.96 1.85 1.87 1.79 1.87 2.08 2.13 2.25 2.34 2.18 2.31 2.39 2.08 1.78 2.18 2.65 2.19 1.75 1.17 0.94 1.05 1.15 1.29 1.34
0.30 0.31 0.27 0.23 0.19 0.19 0.22 0.27 0.41 0.64 0.93 1.23 1.47 1.66 1.90 2.16 2.25 2.15 2.10 2.13 2.22 2.26 2.15 2.11 2.23 2.25 2.33 2.53 2.57 2.52 2.63 2.55 2.22 2.17 2.63 2.55 2.22 1.77 1.21 1.09 1.15 1.31 1.41
0.28 0.27 0.25 0.26 0.22 0.22 0.23 0.26 0.41 0.57 0.77 1.02 1.35 1.60 1.85 2.16 2.23 2.21 2.18 2.22 2.33 2.42 2.38 2.33 2.39 2.40 2.35 2.48 2.57 2.55 2.77 2.96 2.69 2.42 2.19 2.12 2.16 2.18 1.74 1.33 1.25 1.39 1.45
0.31 0.27 0.24 0.26 0.28 0.28 0.28 0.35 0.48 0.62 0.79 1.01 1.33 1.65 1.83 1.99 2.19 2.21 2.12 2.05 2.12 2.14 2.12 2.24 2.39 2.41 2.38 2.40 2.59 2.70 2.88 2.88 2.80 2.67 2.53 2.35 2.16 1.83 1.94 1.81 1.57 1.55 1.44
0.29 0.31 0.33 0.33 0.34 0.38 0.41 0.49 0.61 0.80 0.94 1.01 1.14 1.31 1.52 1.79 1.92 2.03 2.06 2.07 2.07 1.95 1.88 1.98 2.09 2.18 2.23 2.22 2.28 2.44 2.58 2.76 2.91 2.84 2.66 2.57 2.46 2.28 2.16 1.90 1.75 1.81 1.63
0.40 0.46 0.53 0.49 0.47 0.50 0.60 0.67 0.74 0.82 0.87 0.85 0.90 1.02 1.18 1.40 1.53 1.62 1.81 1.89 1.92 1.87 1.82 1.80 1.87 1.95 2.00 2.10 2.27 2.26 2.29 2.47 2.68 2.68 2.61 2.60 2.40 2.32 2.38 2.20 1.87 1.78 1.66
0.51 0.64 0.75 0.77 0.73 0.71 0.73 0.71 0.73 0.70 0.70 0.72 0.78 0.84 0.90 1.04 1.15 1.23 1.38 1.51 1.51 1.49 1.48 1.54 1.64 1.79 1.89 1.98 2.13 2.18 2.13 2.21 2.28 2.30 2.44 2.51 2.39 2.20 2.14 2.18 2.27 2.03 1.78
0.66 0.81 0.93 0.99 0.94 0.86 0.79 0.76 0.77 0.74 0.67 0.67 0.74 0.80 0.84 0.84 0.88 0.92 0.91 0.99 1.07 1.10 1.15 1.23 1.37 1.56 1.70 1.76 1.87 2.01 2.00 2.06 2.06 2.12 2.20 2.22 2.26 2.12 1.96 1.92 2.02 2.16 1.96
0.87 0.98 1.05 1.03 1.01 1.06 1.01 0.84 0.79 0.80 0.74 0.81 0.81 0.77 0.75 0.73 0.72 0.76 0.81 0.82 0.90 1.00 1.09 1.12 1.19 1.32 1.41 1.51 1.69 1.83 1.90 1.93 1.91 1.90 1.97 2.02 2.07 2.08 2.04 2.01 2.00 2.00 1.95
1.06 1.07 1.14 1.07 0.93 0.94 0.92 0.90 0.86 0.82 0.84 0.86 0.86 0.76 0.73 0.73 0.73 0.70 0.74 0.82 0.90 1.00 1.06 1.10 1.14 1.17 1.26 1.31 1.43 1.58 1.71 1.75 1.76 1.66 1.70 1.81 1.87 2.04 2.07 2.03 1.99 1.99 1.91
1.01 1.02 1.09 1.00 0.85 0.80 0.71 0.75 0.83 0.85 0.93 0.93 0.85 0.76 0.75 0.78 0.84 0.82 0.76 0.79 0.85 0.86 0.97 1.09 1.06 1.06 1.11 1.19 1.31 1.41 1.46 1.56 1.54 1.45 1.48 1.58 1.65 1.78 1.91 2.01 1.92 1.93 1.89
0.79 0.77 0.77 0.84 0.79 0.75 0.67 0.73 0.79 0.85 0.90 0.93 0.91 0.80 0.69 0.72 0.78 0.78 0.71 0.69 0.75 0.80 0.93 1.06 1.17 1.08 0.98 1.08 1.19 1.24 1.27 1.27 1.23 1.23 1.27 1.33 1.39 1.52 1.64 1.75 1.84 1.85 1.78
0.58 0.55 0.51 0.55 0.58 0.60 0.65 0.70 0.80 0.92 0.97 0.96 0.90 0.86 0.79 0.81 0.75 0.65 0.63 0.65 0.64 0.62 0.70 0.84 0.96 1.00 0.96 0.92 0.94 0.98 1.14 1.14 1.06 0.98 0.98 1.01 1.04 1.17 1.30 1.40 1.56 1.72 1.85
0.42 0.40 0.37 0.36 0.37 0.39 0.48 0.55 0.68 0.84 0.96 1.02 0.98 0.90 0.84 0.74 0.67 0.60 0.53 0.54 0.50 0.49 0.56 0.72 0.90 0.96 0.96 0.99 0.99 0.91 0.95 1.01 1.03 0.97 0.88 0.81 0.81 0.91 1.01 1.10 1.36 1.56 1.72
0.30 0.27 0.28 0.26 0.28 0.32 0.39 0.40 0.50 0.66 0.77 0.82 0.84 0.87 0.82 0.66 0.58 0.51 0.45 0.42 0.43 0.44 0.47 0.55 0.71 0.87 0.86 1.01 1.06 0.99 0.91 0.92 0.92 0.92 0.91 0.90 0.86 0.75 0.71 0.79 0.95 1.19 1.40
0.25 0.23 0.22 0.23 0.27 0.35 0.37 0.37 0.44 0.55 0.59 0.63 0.67 0.70 0.67 0.53 0.47 0.38 0.33 0.36 0.37 0.41 0.43 0.49 0.61 0.75 0.90 0.93 0.83 0.92 0.93 0.90 0.91 0.89 0.88 0.91 0.91 0.95 0.84 0.78 0.77 0.81 0.98
0.18 0.22 0.20 0.19 0.21 0.27 0.34 0.42 0.43 0.43 0.44 0.48 0.51 0.51 0.51 0.46 0.39 0.31 0.30 0.32 0.35 0.40 0.41 0.45 0.50 0.59 0.77 0.82 0.72 0.90 0.94 0.95 0.95 0.94 0.96 0.99 1.03 0.99 1.09 1.06 0.97 0.90 0.90
0.09 0.12 0.12 0.12 0.13 0.14 0.15 0.17 0.20 0.22 0.25 0.34 0.40 0.44 0.43 0.39 0.34 0.29 0.36 0.42 0.42 0.42 0.41 0.40 0.42 0.46 0.54 0.63 0.60 0.74 0.89 1.00 0.99 0.89 0.90 0.96 1.00 1.18 1.22 1.13 1.11 1.04 0.99
0.04 0.05 0.08 0.08 0.08 0.07 0.06 0.06 0.07 0.11 0.15 0.21 0.27 0.33 0.37 0.38 0.41 0.49 0.57 0.58 0.54 0.49 0.44 0.40 0.39 0.42 0.44 0.56 0.45 0.57 0.75 0.92 1.02 0.96 0.91 1.06 1.04 1.05 1.00 0.97 1.16 1.14 1.04
0.02 0.03 0.05 0.06 0.07 0.06 0.05 0.05 0.05 0.04 0.04 0.07 0.12 0.21 0.34 0.40 0.48 0.59 0.61 0.61 0.56 0.46 0.41 0.39 0.37 0.38 0.46 0.60 0.55 0.62 0.71 0.84 0.93 0.96 0.97 0.95 1.03 0.86 0.82 0.87 1.02 1.17 1.11
0.03 0.03 0.04 0.05 0.07 0.08 0.06 0.06 0.10 0.06 0.04 0.06 0.10 0.15 0.24 0.33 0.46 0.54 0.53 0.53 0.54 0.49 0.44 0.45 0.42 0.43 0.53 0.61 0.61 0.62 0.67 0.74 0.82 0.84 0.76 0.75 0.83 0.69 0.64 0.63 0.76 0.95 0.97
0.03 0.04 0.05 0.06 0.06 0.07 0.07 0.07 0.06 0.07 0.06 0.06 0.07 0.09 0.15 0.26 0.40 0.43 0.42 0.45 0.48 0.48 0.45 0.42 0.40 0.40 0.47 0.57 0.68 0.58 0.51 0.50 0.58 0.64 0.64 0.57 0.54 0.53 0.50 0.53 0.63 0.70 0.84
0.03 0.03 0.04 0.04 0.05 0.05 0.05 0.06 0.06 0.06 0.05 0.05 0.05 0.05 0.06 0.08 0.14 0.18 0.22 0.29 0.34 0.35 0.35 0.37 0.40 0.42 0.43 0.43 0.49 0.52 0.48 0.43 0.43 0.43 0.37 0.36 0.39 0.45 0.47 0.48 0.50 0.57 0.78
0.03 0.03 0.03 0.04 0.04 0.04 0.04 0.04 0.05 0.06 0.07 0.06 0.04 0.04 0.06 0.07 0.07 0.09 0.12 0.15 0.18 0.21 0.27 0.32 0.35 0.36 0.39 0.39 0.43 0.45 0.45 0.50 0.54 0.56 0.47 0.41 0.39 0.41 0.45 0.48 0.53 0.66 0.76
0.03 0.03 0.03 0.04 0.04 0.04 0.04 0.04 0.04 0.04 0.06 0.07 0.06 0.04 0.04 0.05 0.05 0.06 0.07 0.09 0.10 0.12 0.14 0.17 0.19 0.20 0.26 0.33 0.36 0.38 0.40 0.43 0.50 0.54 0.55 0.55 0.56 0.57 0.56 0.55 0.52 0.53 0.61